Flag for India Weather past 2 weeks in Balurghat, West Bengal, India

Now
73 °F

Haze.


Feels Like: 77 °F
Forecast: 76 / 109 °F
Wind: 2 mph from North

Location: Lucknow / Amausi


UV Index: 7 (High)

Visibility: 2 mi


Pressure: 29.68 "Hg

Humidity: 50%

Dew point: 54 °F

Location of BalurghatLocation

Historic Weather in Balurghat

°F

Balurghat temperature yesterday

Maximum temperature yesterday: 100 °F (at 12:00 PM)
Minimum temperature yesterday: 73 °F (at 6:00 AM)
Average temperature yesterday: 90 °F

Past Weeks' High & Low Weather Summary

 TemperatureHumidityPressure
High106 °F (Apr 15, 2:00 PM)88% (Apr 20, 6:00 AM)29.98 "Hg (Apr 20, 6:00 AM)
Low61 °F (Apr 11, 4:00 AM)10% (Apr 10, 2:30 PM)29.62 "Hg (Apr 17, 7:00 PM)
Average85 °F36%29.80 "Hg
* Reported Apr 9 3:00 AM — Apr 24 3:00 AM, Balurghat, Weather by CustomWeather, © 2014

Note: Actual official high and low records may vary slightly from our data, if they occured in-between our weather recording intervals... More about our weather records

Advertising

Historic Weather Conditions — Data for Previous 24 hours

 ConditionsComfort  
Time TempWeatherWind HumidityBarometerVisibility
3:00 AM
Apr 24
73 °FHaze.2 mph53%29.71 "Hg2 mi
1:00 AM77 °FHaze.2 mph44%29.71 "Hg2 mi
12:00 AM81 °FHaze.2 mph39%29.74 "Hg2 mi
11:00 PM
Apr 23
82 °FHaze.2 mph37%29.74 "Hg2 mi
10:00 PM84 °FHaze.3 mph35%29.74 "Hg2 mi
9:00 PM86 °FHaze.3 mph33%29.74 "Hg2 mi
8:30 PM86 °FHaze.3 mph33%29.74 "Hg2 mi
8:00 PM90 °FDuststorm.3 mph27%29.71 "Hg2 mi
7:30 PM91 °FHaze.3 mph26%29.71 "Hg2 mi
7:00 PM93 °FHaze.5 mph24%29.71 "Hg2 mi
6:30 PM93 °FHaze.7 mph24%29.71 "Hg2 mi
6:00 PM95 °FDuststorm.12 mph23%29.68 "Hg2 mi
5:30 PM97 °FDuststorm.14 mph20%29.68 "Hg2 mi
5:00 PM99 °FDuststorm.14 mph21%29.68 "Hg2 mi
4:30 PM100 °FDuststorm.14 mph20%29.71 "Hg3 mi
4:00 PM100 °FDuststorm.15 mph18%29.71 "Hg3 mi
3:30 PM100 °FDuststorm.15 mph20%29.71 "Hg3 mi
3:00 PM100 °FDuststorm.14 mph20%29.74 "Hg3 mi
2:30 PM100 °FDuststorm.15 mph20%29.74 "Hg3 mi
2:00 PM100 °FDuststorm.16 mph22%29.77 "Hg3 mi
1:30 PM100 °FDuststorm.15 mph22%29.80 "Hg3 mi
1:00 PM100 °FDuststorm.12 mph22%29.80 "Hg3 mi
12:30 PM100 °FDuststorm.12 mph22%29.80 "Hg3 mi
12:00 PM100 °FHaze.9 mph24%29.83 "Hg3 mi
11:30 AM99 °FHaze.9 mph27%29.86 "Hg3 mi
11:00 AM97 °FHaze.12 mph27%29.86 "Hg3 mi
10:30 AM95 °FHaze.9 mph30%29.86 "Hg3 mi
10:00 AM93 °FHaze.9 mph32%29.86 "Hg3 mi
9:30 AM91 °FHaze.12 mph34%29.86 "Hg3 mi
8:30 AM86 °FHaze.9 mph38%29.86 "Hg3 mi
8:00 AM82 °FHaze.9 mph42%29.86 "Hg2 mi
7:30 AM81 °FHaze.7 mph45%29.83 "Hg2 mi
7:00 AM77 °FHaze.6 mph47%29.83 "Hg2 mi
6:30 AM75 °FHaze.6 mph47%29.83 "Hg2 mi
6:00 AM73 °FHaze.5 mph50%29.83 "Hg2 mi
5:30 AM77 °FHaze.5 mph44%29.80 "Hg2 mi
5:00 AM79 °FPartly cloudy.7 mph45%29.80 "Hg2 mi
Weather by CustomWeather, © 2014

See weather overview